[[{"header":{"parameterUnit":"m.s-1","parameterCategory":1,"la1":30.2991,"la2":30.254,"lo1":-89.0895,"lo2":-89.0444,"dy":0.0017,"dx":0.0017,"nx":28,"ny":28,"refTime":"2025-05-18T03:00:00:Z","depth":0,"parameterNumber":2,"parameterNumberName":"U-component_of_WINDS"},"data":[0,0,0,0,0,0,0,0,0,0,0,0,0,0,0,0,0,0,0,0,0,0,0,0,0,0,0,0,0,0,0,0,0,0,0,0,0,0,0,0,0,0,0,0,0,0,0,0,0,0,0,0,0,0,0,0,0,0,0.1176,0.1176,0,0.1207,0.1207,0.1207,0.1212,0.1211,0.1211,0.1211,0.1244,0.1245,0.1246,0,0,0,0,0,0,0,0,0,0,0,0,0,0.1123,0.1124,0.1176,0.1176,0.1177,0.1207,0.1207,0.1207,0.1212,0.1211,0.1211,0.1211,0.1244,0.1245,0.1246,0,0,0,0,0,0,0,0,0,0,0,0,0,0.1149,0.1124,0.1176,0.1182,0.1183,0.1207,0.1207,0.1208,0.1212,0.1211,0.1211,0.121,0.1243,0.1245,0.1247,0.1266,0,0,0.1252,0.1253,0,0,0,0,0,0,0,0,0.1147,0.1151,0.1181,0.1182,0.1183,0.1205,0.12,0.1227,0.1212,0.1201,0.1211,0.121,0.1232,0.1234,0.1241,0.1268,0.1269,0.1252,0.1253,0.1254,0.1254,0,0,0,0,0,0,0,0.1146,0.115,0.1188,0.1182,0.1183,0.1184,0.1188,0.1206,0.1218,0.1202,0.1202,0.1206,0.1232,0.1239,0.1242,0.127,0.1252,0.1254,0.1255,0.1255,0.1314,0.1315,0,0,0,0,0,0,0.1142,0.1148,0.1187,0.1189,0.1164,0.1186,0.1189,0.1198,0.1218,0.1221,0.1206,0.1206,0.1236,0.124,0.1243,0.1267,0.1254,0.1256,0.1257,0.1314,0.1314,0.1315,0,0,0,0,0,0,0.1141,0.1146,0.1186,0.1169,0.1174,0.1187,0.1197,0.1199,0.1206,0.1221,0.1224,0.1211,0.1236,0.1241,0.126,0.1268,0.1256,0.1258,0.1313,0.1314,0.1315,0.1316,0,0,0,0,0,0,0.114,0.1145,0.1153,0.1169,0.1175,0.1202,0.1198,0.12,0.1209,0.1209,0.1227,0.1229,0.1236,0.1258,0.1262,0.1271,0.1259,0.1312,0.1313,0.1314,0.1315,0.1316,0.1318,0,0,0,0,0,0.1138,0.1152,0.1153,0.1158,0.1184,0.1203,0.1206,0.1213,0.121,0.1217,0.1227,0.1229,0.1267,0.126,0.1265,0.1274,0.1312,0.1313,0.1314,0.1314,0.1316,0.1317,0,0,0,0,0,0,0.1137,0.1154,0.1155,0.1175,0.1187,0.1203,0.1213,0.1215,0.1229,0.1228,0.1238,0.1241,0.1261,0.1269,0.1261,0.1294,0.1289,0.1291,0.1287,0.1289,0.129,0.1288,0.1261,0,0,0,0,0,0.1139,0.1152,0.1167,0.1183,0.1189,0.12,0.1208,0.1213,0.1226,0.1231,0.1242,0.1256,0.1271,0.128,0.1295,0.1316,0.132,0.1325,0.1326,0.1327,0.1329,0.1341,0.1343,0.1319,0.1319,0.1319,0,0,0.1144,0.1155,0.1163,0.1183,0.1193,0.1207,0.1204,0.1219,0.123,0.1234,0.1253,0.1262,0.1277,0.1297,0.1307,0.1305,0.1337,0.1329,0.1329,0.1331,0.1342,0.1345,0.1347,0.1319,0.1319,0.1319,0,0,0.1159,0.1169,0.1183,0.1193,0.1208,0.1215,0.1219,0.1234,0.124,0.1259,0.1262,0.1275,0.1301,0.1312,0.132,0.134,0.1342,0.1344,0.1351,0.1363,0.1365,0.1366,0.1374,0.1376,0.1346,0.1346,0.1346,0,0.1163,0.1184,0.1191,0.1206,0.1215,0.1218,0.1233,0.1243,0.1262,0.1268,0.1265,0.1297,0.1308,0.1331,0.1336,0.1343,0.1347,0.1343,0.1364,0.1366,0.1367,0.1374,0.1377,0.1346,0.1346,0.1346,0.1346,0,0.1188,0.1203,0.1213,0.123,0.1241,0.1255,0.1265,0.1274,0.1278,0.1285,0.1305,0.1318,0.1335,0.1341,0.1345,0.1364,0.1363,0.1362,0.1357,0.137,0.1376,0.1379,0.1347,0.1347,0.1347,0.1346,0,0,0.1205,0.1225,0.1229,0.1237,0.1254,0.1265,0.128,0.1296,0.1304,0.1317,0.133,0.1352,0.1351,0.1361,0.1366,0.1376,0.1391,0.1374,0.1375,0.1377,0.1413,0.1414,0.1417,0.1392,0.1393,0.1393,0.1412,0,0.1222,0.1248,0.1255,0.1278,0.1291,0.1295,0.1308,0.132,0.1327,0.134,0.1348,0.1363,0.1361,0.1367,0.1377,0.1387,0.1398,0.1385,0.1405,0.1405,0.1401,0.142,0.1421,0.1438,0.1415,0.1415,0.1415,0,0.1246,0.1259,0.1283,0.1297,0.1303,0.1315,0.133,0.1342,0.1356,0.1361,0.1372,0.1376,0.1392,0.1386,0.1409,0.14,0.1409,0.1415,0.1416,0.1418,0.1411,0.1423,0.1444,0.1447,0.142,0.1419,0.1419,0,0.1255,0.1279,0.1296,0.1303,0.1321,0.1329,0.1336,0.1349,0.1359,0.1372,0.1378,0.1394,0.1402,0.1415,0.1423,0.1418,0.1445,0.144,0.145,0.145,0.1456,0.1455,0.1478,0.1461,0.1461,0.1461,0.1461,0,0.1274,0.1289,0.1301,0.1311,0.1328,0.1335,0.1352,0.136,0.1371,0.1384,0.1388,0.14,0.141,0.1423,0.143,0.1448,0.1452,0.1456,0.1458,0.1456,0.1456,0.1462,0.1461,0.1461,0.1461,0.1461,0.1461,0,0.1288,0.1296,0.1315,0.133,0.1334,0.1346,0.1359,0.1369,0.1377,0.1393,0.1397,0.1409,0.1425,0.1434,0.1454,0.1459,0.1479,0.148,0.1474,0.1475,0.1484,0.1483,0.1512,0.1516,0.1496,0.1496,0.1496,0,0.1299,0.131,0.1326,0.1335,0.1343,0.1356,0.1366,0.1374,0.1383,0.1399,0.1408,0.1424,0.1437,0.1463,0.1474,0.1489,0.1491,0.15,0.1493,0.1491,0.1491,0.149,0.1491,0.1501,0.1501,0.1501,0.1501,0,0.1319,0.1322,0.1335,0.135,0.1361,0.1373,0.1385,0.1391,0.1401,0.1412,0.1428,0.1438,0.1459,0.1475,0.1491,0.15,0.1502,0.1503,0.1506,0.1505,0.1501,0.1503,0.1477,0.1503,0.1503,0.1503,0.1502,0.1502,0.1332,0.1342,0.1355,0.1369,0.1379,0.139,0.14,0.1409,0.1422,0.1439,0.1443,0.146,0.1473,0.1495,0.1504,0.1518,0.1517,0.1521,0.1522,0.1523,0.1523,0.1498,0.1521,0.1521,0.1521,0.1521,0.1521,0,0.1351,0.136,0.1373,0.1389,0.1401,0.1402,0.1415,0.1424,0.1439,0.1451,0.1464,0.1482,0.1498,0.1509,0.1525,0.1534,0.1536,0.1538,0.1538,0.154,0.1524,0.152,0.1536,0.1536,0.1536,0.1536,0.1536,0.1536,0.1363,0.138,0.1385,0.1407,0.1416,0.1432,0.1439,0.145,0.1459,0.1479,0.1492,0.1499,0.1512,0.1528,0.1543,0.1546,0.1552,0.1554,0.1557,0.1542,0.1541,0.1539,0.1535,0.1555,0.1555,0.1572,0.1572,0.1572]},{"header":{"parameterUnit":"m.s-1","parameterCategory":1,"la1":30.2991,"la2":30.254,"lo1":-89.0895,"lo2":-89.0444,"dy":0.0017,"dx":0.0017,"nx":28,"ny":28,"refTime":"2025-05-18T03:00:00:Z","depth":0,"parameterNumber":3,"parameterNumberName":"V-component_of_WINDS"},"data":[0,0,0,0,0,0,0,0,0,0,0,0,0,0,0,0,0,0,0,0,0,0,0,0,0,0,0,0,0,0,0,0,0,0,0,0,0,0,0,0,0,0,0,0,0,0,0,0,0,0,0,0,0,0,0,0,0,0,5.1074,5.1073,0,5.1017,5.1016,5.1016,5.096,5.0959,5.0958,5.0957,5.0894,5.0893,5.0892,0,0,0,0,0,0,0,0,0,0,0,0,0,5.1133,5.1132,5.1074,5.1073,5.1073,5.1017,5.1016,5.1016,5.096,5.0959,5.0958,5.0957,5.0894,5.0893,5.0892,0,0,0,0,0,0,0,0,0,0,0,0,0,5.1095,5.1132,5.1074,5.1038,5.1034,5.1017,5.1016,5.1015,5.096,5.0959,5.0958,5.0957,5.0895,5.0893,5.0892,5.0904,0,0,5.0887,5.0887,0,0,0,0,0,0,0,0,5.1097,5.1092,5.1044,5.1041,5.1036,5.0994,5.1014,5.0978,5.096,5.0988,5.0957,5.0956,5.0928,5.0924,5.0915,5.0901,5.0899,5.0887,5.0886,5.0886,5.0885,0,0,0,0,0,0,0,5.11,5.1095,5.1051,5.1044,5.1039,5.1024,5.1018,5.1007,5.0965,5.0985,5.0981,5.0976,5.0926,5.0917,5.0913,5.0898,5.0887,5.0886,5.0885,5.0884,5.0894,5.0895,0,0,0,0,0,0,5.1108,5.1097,5.1053,5.105,5.1065,5.1024,5.1017,5.1009,5.0965,5.0957,5.0977,5.0973,5.092,5.0915,5.0911,5.0925,5.0886,5.0884,5.0883,5.0893,5.0895,5.0896,0,0,0,0,0,0,5.111,5.1105,5.1055,5.1072,5.1065,5.1024,5.1016,5.1008,5.0999,5.0958,5.095,5.0975,5.0919,5.0913,5.0907,5.0922,5.0883,5.0882,5.0892,5.0894,5.0895,5.0951,0,0,0,0,0,0,5.1112,5.1106,5.111,5.1073,5.1064,5.1054,5.1017,5.1008,5.0998,5.0993,5.0955,5.0947,5.0918,5.091,5.0906,5.0919,5.0881,5.089,5.0893,5.0895,5.0948,5.0954,5.096,0,0,0,0,0,5.1114,5.1126,5.1111,5.1106,5.1069,5.1054,5.1049,5.1016,5.0999,5.1003,5.0977,5.0949,5.0921,5.091,5.0905,5.0917,5.0889,5.0892,5.0895,5.0945,5.0953,5.096,0,0,0,0,0,0,5.1163,5.112,5.1103,5.1104,5.1084,5.1045,5.1049,5.1026,5.1008,5.1004,5.0963,5.0955,5.0954,5.0935,5.0924,5.0929,5.0901,5.0903,5.0941,5.0949,5.0955,5.0959,5.088,0,0,0,0,0,5.1175,5.1168,5.113,5.1134,5.1126,5.109,5.1082,5.1059,5.1035,5.1026,5.0999,5.0977,5.0963,5.0955,5.094,5.0945,5.0937,5.0951,5.0958,5.0963,5.0965,5.0969,5.0976,5.0905,5.0905,5.0905,0,0,5.1197,5.1173,5.1171,5.1144,5.1125,5.1119,5.1082,5.1076,5.107,5.1024,5.1018,5.0998,5.0971,5.0972,5.097,5.0955,5.0983,5.0966,5.0971,5.097,5.0972,5.0979,5.0985,5.0906,5.0906,5.0906,0,0,5.1236,5.1216,5.1219,5.1203,5.1176,5.1153,5.1154,5.112,5.1106,5.11,5.1066,5.1059,5.1036,5.1018,5.1007,5.1043,5.1017,5.1039,5.1072,5.1076,5.1082,5.1087,5.1101,5.1107,5.1041,5.1041,5.1042,0,5.1266,5.1256,5.1223,5.122,5.121,5.1171,5.1174,5.1159,5.1129,5.1122,5.1107,5.108,5.1058,5.1056,5.1065,5.1056,5.1057,5.1043,5.1084,5.1088,5.1092,5.1106,5.1111,5.1044,5.1044,5.1044,5.1044,0,5.1296,5.129,5.1295,5.127,5.1261,5.126,5.1228,5.1222,5.1201,5.1179,5.1175,5.1148,5.1129,5.1127,5.1104,5.1122,5.1114,5.1092,5.1063,5.1103,5.1115,5.1119,5.1049,5.1048,5.1047,5.1046,0,0,5.1361,5.1321,5.1324,5.1314,5.1284,5.1277,5.1277,5.126,5.1257,5.1238,5.1236,5.122,5.1201,5.1188,5.1163,5.1167,5.1201,5.1145,5.1143,5.1157,5.1221,5.1239,5.1245,5.1184,5.1185,5.1185,5.1224,0,5.1395,5.1392,5.1365,5.1369,5.1364,5.1329,5.1328,5.131,5.1291,5.1283,5.1261,5.1251,5.1225,5.1217,5.122,5.1196,5.1213,5.1193,5.1182,5.1182,5.1191,5.1251,5.1268,5.1306,5.1228,5.1229,5.123,0,5.1433,5.1421,5.1426,5.1399,5.1396,5.1396,5.138,5.1373,5.1352,5.1338,5.1326,5.13,5.1298,5.1272,5.1269,5.1256,5.125,5.1238,5.1239,5.1237,5.1208,5.1251,5.1317,5.1323,5.1236,5.1236,5.1235,0,5.1483,5.1466,5.1468,5.146,5.1428,5.143,5.1416,5.1395,5.1388,5.1374,5.1369,5.1354,5.1346,5.1336,5.1307,5.129,5.1308,5.1279,5.1296,5.1297,5.1301,5.1301,5.1368,5.1297,5.1297,5.1297,5.1296,0,5.1523,5.1528,5.149,5.1491,5.1496,5.1465,5.1471,5.1454,5.1436,5.1433,5.1401,5.1399,5.1361,5.1356,5.1333,5.1335,5.1331,5.132,5.1314,5.1323,5.1325,5.1319,5.1315,5.1298,5.1298,5.1297,5.1297,0,5.1578,5.1553,5.1553,5.1525,5.1518,5.1523,5.1498,5.1499,5.1479,5.1476,5.1474,5.1443,5.1434,5.1405,5.1389,5.1374,5.1384,5.1371,5.1391,5.1387,5.1407,5.1406,5.1472,5.148,5.1404,5.1405,5.1405,0,5.1606,5.161,5.1583,5.158,5.1569,5.1564,5.1558,5.1528,5.1522,5.1502,5.1505,5.1495,5.1485,5.1474,5.1449,5.1437,5.1425,5.145,5.1423,5.1433,5.1427,5.1428,5.1429,5.1455,5.1456,5.1457,5.1457,0,5.1659,5.1647,5.164,5.163,5.1624,5.1613,5.1601,5.16,5.1567,5.1562,5.1555,5.1548,5.1534,5.1525,5.151,5.1496,5.1472,5.1467,5.147,5.1479,5.1491,5.1487,5.1408,5.1465,5.1464,5.1463,5.1463,5.1463,5.1702,5.1704,5.1687,5.1681,5.167,5.166,5.166,5.1641,5.1635,5.1622,5.1605,5.1601,5.1583,5.1561,5.1549,5.1545,5.1531,5.1536,5.1538,5.1539,5.1545,5.1493,5.1542,5.1542,5.1542,5.1541,5.1541,0,5.1754,5.1742,5.1737,5.1723,5.1718,5.1698,5.1685,5.1682,5.1679,5.1665,5.1658,5.1651,5.1643,5.1619,5.1609,5.1611,5.16,5.1609,5.1609,5.1607,5.1557,5.1555,5.1619,5.1619,5.1619,5.1619,5.1619,5.1619,5.1781,5.1785,5.1772,5.1771,5.1759,5.1756,5.175,5.1741,5.173,5.1725,5.1719,5.1704,5.1687,5.1676,5.1669,5.1662,5.166,5.1674,5.1663,5.1617,5.161,5.1603,5.1601,5.1673,5.1673,5.1714,5.1714,5.1714]}]]